Miscellaneous Local Product
Issued by NWS Hastings, NE

Home | Current Version | Previous Version | Graphics & Text | Print | Product List | Glossary On
Versions: 1 2 3 4 5 6 7 8 9 10 11 12 13 14 15 16 17 18 19 20 21 22 23 24 25 26 27 28 29 30 31 32 33 34 35 36 37 38 39 40 41 42 43 44 45 46 47 48 49 50
917
AXUS43 KGID 080502
MISGRI

GID CWA HOURLY WEATHER ROUNDUP
NATIONAL WEATHER SERVICE HASTINGS NE
1100 PM CST WED DEC 07 2016

NOTE: "FAIR" INDICATES FEW OR NO CLOUDS BELOW 12,000 FEET WITH NO
SIGNIFICANT WEATHER AND/OR OBSTRUCTIONS TO VISIBILITY.

...SOUTH CENTRAL NEBRASKA...

CITY           SKY/WX    TMP DP  RH WIND       PRES   REMARKS
GRAND ISLAND   CLEAR     12   3  67 NW15      30.50R WCI  -4
HASTINGS       CLEAR     13   3  64 NW14      30.51R WCI  -2
KEARNEY        CLEAR     12   1  62 NW10      30.50R WCI  -1
ORD            CLEAR     11  -1  58 NW21G29   30.48R WCI  -8
YORK           PTCLDY    14   5  67 NW20      30.49R WCI  -3
AURORA         CLEAR     14   3  60 NW17G24   30.49R WCI  -2
LEXINGTON      CLEAR     10   3  71 NW12      30.51R WCI  -4
HOLDREGE       CLEAR      9   1  71 NW7       30.51R WCI  -3
HEBRON         CLEAR     17   6  62 NW10      30.52R WCI   4

...NEBRASKA PANHANDLE...

CITY           SKY/WX    TMP DP  RH WIND       PRES   REMARKS
CHADRON        CLEAR      4  -5  66 W16       30.50R WCI -15
ALLIANCE       CLEAR     -3  -9  75 W9        30.42R WCI -19
SCOTTSBLUFF    CLEAR     -2  -8  76 NW8       30.48R WCI -17
SIDNEY         CLEAR     -3  -9  75 NW10      30.43R WCI -20

...WESTERN AND NORTH CENTRAL NEBRASKA...

CITY           SKY/WX    TMP DP  RH WIND       PRES   REMARKS
VALENTINE      CLEAR      7  -4  60 NW18G24   30.48R WCI -12
AINSWORTH      CLEAR      8  -1  69 NW23      30.46R WCI -13
ONEILL         CLEAR     10   1  67 NW21G30   30.45R WCI  -9
BROKEN BOW     CLEAR      9   1  70 NW16      30.48R WCI  -8
IMPERIAL       CLEAR      3  -5  69 NW12      30.50R WCI -13
NORTH PLATTE   CLEAR      4  -1  80 NW9       30.51R WCI -10
MCCOOK         CLEAR     -1  -5  82 W8        30.53R WCI -15

...EASTERN NEBRASKA...

CITY           SKY/WX    TMP DP  RH WIND       PRES   REMARKS
NORFOLK        CLEAR     12   0  58 NW22G29   30.44R WCI  -7
SO SIOUX CITY  CLOUDY    16   6  65 NW23G30   30.40R WCI  -2
TEKAMAH        CLEAR     15   4  61 NW21G31   30.45R WCI  -2
COLUMBUS       CLEAR     12   1  62 W17G26    30.47R WCI  -5
ALBION         CLEAR     12   1  62 NW17G24   30.46R WCI  -5
OMAHA EPPLEY   CLEAR     17   5  59 NW18G28   30.46R WCI   1
OFFUTT AFB     CLEAR     17   5  60 NW18G24   30.45R WCI   1
MILLARD        CLEAR     17   5  58 NW17G25   30.47R WCI   2
LINCOLN        CLEAR     17   5  59 NW16      30.50R WCI   2
NEBRASKA CITY  CLEAR     18   3  52 NW16      30.46R WCI   3
BEATRICE       CLEAR     17   8  65 NW15      30.49R WCI   3
FALLS CITY     CLEAR     19   8  62 NW13      30.48R WCI   6

...NORTHERN KANSAS...

CITY           SKY/WX    TMP DP  RH WIND       PRES   REMARKS
GOODLAND       CLEAR      2  -3  80 NW14      30.47R WCI -16
HILL CITY      CLEAR     10   5  80 NW9       30.54R WCI  -3
NORTON         CLEAR      9   0  66 W12       30.52R WCI  -6
PHILLIPSBURG   CLEAR     12   7  79 W9        30.55R WCI   0
SMITH CENTER   CLEAR      5   0  78 NW5       30.55R WCI  -4
BELOIT         CLEAR     14   7  73 NW8       30.55R WCI   3
HAYS           CLEAR     14  10  84 NW12      30.55R WCI   0
RUSSELL        CLEAR     16  10  77 NW13      30.53R WCI   2
CONCORDIA      CLEAR     15   7  70 NW9       30.53R WCI   3
SALINA         CLEAR     18  13  80 NW13      30.54R WCI   5
TOPEKA         CLEAR     20   9  62 NW9       30.51R WCI   9



USA.gov is the U.S. government's official web portal to all federal, state and local government web resources and services.